Miscellaneous Local Product
Issued by NWS Hastings, NE

Home | Current Version | Previous Version | Text Only | Print | Product List | Glossary On
Versions: 1 2 3 4 5 6 7 8 9 10 11 12 13 14 15 16 17 18 19 20 21 22 23 24 25 26 27 28 29 30 31 32 33 34 35 36 37 38 39 40 41 42 43 44 45 46 47 48 49 50
662
AXUS43 KGID 291002
MISGRI

GID CWA HOURLY WEATHER ROUNDUP
NATIONAL WEATHER SERVICE HASTINGS NE
500 AM CDT FRI JUL 29 2016

NOTE: "FAIR" INDICATES FEW OR NO CLOUDS BELOW 12,000 FEET WITH NO
SIGNIFICANT WEATHER AND/OR OBSTRUCTIONS TO VISIBILITY.

...SOUTH CENTRAL NEBRASKA...

CITY           SKY/WX    TMP DP  RH WIND       PRES   REMARKS
GRAND ISLAND   CLOUDY    67  64  90 N3        30.04F
HASTINGS       MOCLDY    65  63  93 N3        30.04F
ORD            CLEAR     62  60  93 NW3       30.05F
YORK           CLOUDY    66  64  94 CALM      30.02F
AURORA         CLOUDY    65  65  99 N3        30.03F
LEXINGTON      CLEAR     60  58  94 W3        30.08S
HOLDREGE       PTCLDY    61  60  96 CALM      30.07R
HEBRON         MOCLDY    64  62  92 CALM      30.00F

...NEBRASKA PANHANDLE...

CITY           SKY/WX    TMP DP  RH WIND       PRES   REMARKS
CHADRON        CLEAR     57  55  93 CALM      30.14F
ALLIANCE       FOG       52  52 100 W6        30.16F VSB 1/4
SCOTTSBLUFF    CLEAR     60  57  89 NE6       30.16S
SIDNEY         CLOUDY    59  57  93 W5        30.19R

...WESTERN AND NORTH CENTRAL NEBRASKA...

CITY           SKY/WX    TMP DP  RH WIND       PRES   REMARKS
VALENTINE      NOT AVBL
AINSWORTH      HVY RAIN  61  61 100 NW7       30.12S
ONEILL         CLOUDY    65  64  94 NE8       30.08F
BROKEN BOW     CLEAR     59  59 100 N6        30.08F
IMPERIAL       CLEAR     62  60  93 W5        30.12F
NORTH PLATTE   PTCLDY    57  56  96 CALM      30.09F FOG
MCCOOK         CLEAR     59  58  96 CALM      30.08F

...EASTERN NEBRASKA...

CITY           SKY/WX    TMP DP  RH WIND       PRES   REMARKS
NORFOLK        CLOUDY    66  62  87 N6        30.04S
SO SIOUX CITY  CLOUDY    65  62  90 W3        30.02F
TEKAMAH        CLOUDY    65  63  93 N6        30.01S
COLUMBUS       CLOUDY    66  57  72 CALM      30.02S
ALBION         CLOUDY    64  62  92 NW5       30.05S
OMAHA EPPLEY   CLOUDY    68  64  87 N6        30.00S
MILLARD        CLOUDY    71  64  79 CALM      29.99F
LINCOLN        CLOUDY    69  65  86 N3        30.01S
NEBRASKA CITY  CLEAR     65  65 100 N3        29.99S
BEATRICE       CLEAR     63  61  95 N6        29.99F
FALLS CITY     MOCLDY    69  66  90 N6        29.96F

...NORTHERN KANSAS...

CITY           SKY/WX    TMP DP  RH WIND       PRES   REMARKS
GOODLAND       CLOUDY    61  59  93 NW3       30.12F
HILL CITY      CLOUDY    68  66  93 NW6       30.05S
NORTON         MOSUNNY   63  59  88 N5        30.05  FOG
SMITH CENTER   PTCLDY    64  63  94 N5        30.02F
BELOIT         CLEAR     66  64  94 N7        29.98S
HAYS           CLOUDY    66  59  77 NW8       30.03S
RUSSELL        CLOUDY    67  65  93 W8        30.00R
CONCORDIA      PTCLDY    66  63  90 CALM      29.99S
SALINA         CLOUDY    69  66  90 NW5       29.98S
TOPEKA         PTCLDY    66  65  96 W3        29.95S



USA.gov is the U.S. government's official web portal to all federal, state and local government web resources and services.